Starlink 1022

decayed
NORAD ID: 44727 Int'l Des: 2019-074 Owner: SPXS Country: US Constellation: starlink
LEOCIRCULAR

关于 Starlink 1022

正在加载描述...

高度历史

Altitude vs Time

uPlot chart will show altitude changes over time

两行轨道根数

1 44727U 19074Q 23210.81009413 .56805256 12926-4 47929-3 0 9994
2 44727 53.0301 131.7045 0023460 321.4403 89.3769 16.49981586205399
Epoch: Jul 29, 2023 • Age: 23516 hours

当前状态

Position data unavailable
发射日期 Nov 11, 2019
运行时间 6.3 years
衰减日期 Jul 29, 2023
类型 internet

技术详情

分类 Payload
质量 260.00 kg
干质量 248.00 kg
总质量 260.00 kg
长度 0.20 m
直径 2.80 m
跨度 9.00 m
形状 Box + pan
制造商 SPXS
平台类型 Starlink
阶段状态 Unknown Transfer Status
所有者/国家 SPXS/US

大型星座

Loading constellations...